User: anonymous   Login
Location: Unspecified
(0.0000°N, 0.0000°E)
Time: 10:45:50
(UTC+00:00)
Language:

COSMOS 2468 - Orbit

View from above orbital plane
View from above orbital plane
View from above satellite
View from above satellite

Ground track
Ground track

The orbit data is extracted from the following two-line orbital elements,

1 37154U 10043C   18111.73130798  .00000016  00000-0  45373-4 0  9991
2 37154  82.4586 126.9436 0013619 330.3305  29.6990 12.43639974345705
Epoch (UTC): 21 April 2018 17:33:05
Eccentricity: 0.0013619
inclination: 82.4586°
perigee height: 1480 km
apogee height: 1502 km
right ascension of ascending node: 126.9436°
argument of perigee: 330.3305°
revolutions per day: 12.43639974
mean anomaly at epoch: 29.6990°
orbit number at epoch: 34570

The dashed part of the orbit path shows where the satellite is in the earth's shadow,  

DLR